Theta_e
311 311 311 312 311 309 308 307 307 306 305 304 304 304 304 304 305 305 305 305 305 305 305 305 305 304 304 303 302 302 301 301 300 299 299 298 298 297 297 296 296 295 295 295 294 294 293 293 293 293 293 294 295 295 296 297 297 298 298 298 299 299 300 300 300 301 301 301 300 300 300 299 299 299 299 299 298 298 298 297 297 297 297 297 298 298
309 310 310 310 309 308 306 306 305 305 304 303 303 303 303 304 304 305 305 305 305 304 304 304 304 303 303 302 302 301 301 300 300 299 298 297 297 297 296 296 295 295 294 294 293 292 291 291 290 290 291 291 291 292 293 294 295 296 297 297 297 298 298 298 299 299 299 299 299 298 298 298 298 298 298 298 297 297 297 296 296 296 296 296 297 297
308 308 308 307 307 306 305 304 303 302 303 302 302 302 303 303 304 304 304 304 304 303 303 303 303 302 302 301 301 301 300 300 299 298 297 296 296 296 295 295 294 294 293 292 291 291 290 289 289 289 289 289 289 289 290 290 292 293 294 295 296 296 297 297 297 297 298 298 298 297 297 297 297 297 297 296 296 296 296 295 295 295 295 295 295 296
307 306 306 305 304 304 303 303 302 301 301 301 301 302 302 303 303 303 303 303 303 302 302 302 302 302 301 301 300 300 300 299 298 298 297 296 295 295 295 294 293 293 292 291 290 289 289 289 289 289 289 289 289 288 288 288 289 290 291 293 294 295 295 296 296 296 296 297 297 297 297 296 296 296 296 295 295 295 295 294 294 294 294 294 294 295
305 305 305 304 303 302 301 301 301 300 300 300 300 301 301 302 303 303 303 302 302 302 301 301 301 301 301 301 300 299 299 299 298 297 296 295 295 294 294 293 293 292 291 290 290 289 288 288 288 289 289 288 288 288 288 287 287 287 288 289 291 292 293 294 294 295 295 295 296 296 296 296 295 295 295 295 294 294 294 293 293 293 293 293 293 294
304 304 304 304 302 301 300 300 300 300 299 299 299 300 301 302 302 302 302 301 301 301 301 300 300 300 301 300 300 299 299 298 297 296 295 295 294 294 293 293 292 291 291 290 289 288 288 288 288 288 288 288 288 288 287 287 286 286 286 287 288 289 290 291 292 293 293 294 294 294 295 295 294 294 294 294 294 293 293 293 293 293 293 293 293 293
303 303 303 302 301 300 300 300 299 299 299 298 298 299 300 301 301 301 301 301 300 300 300 300 300 300 300 300 300 299 298 297 296 296 295 294 294 293 293 292 292 291 290 289 289 288 288 288 288 288 288 287 287 287 287 286 286 286 286 286 287 288 288 289 290 290 291 292 292 293 293 293 293 293 293 293 293 292 292 292 292 292 293 293 293 293
303 302 301 301 300 299 299 298 298 298 298 298 298 298 298 299 300 300 300 300 300 299 299 299 299 299 299 299 299 299 298 297 295 295 294 293 293 292 292 292 291 291 290 289 288 288 287 287 287 287 287 287 287 287 286 286 286 287 287 287 287 287 288 288 288 289 289 290 290 291 291 291 292 292 292 292 292 292 291 291 292 292 292 292 293 293
303 301 300 300 299 298 297 297 297 297 297 297 297 297 297 297 298 298 298 299 299 298 298 298 299 299 299 299 299 298 297 295 294 294 293 292 292 292 292 292 291 290 289 289 288 288 287 287 287 287 287 287 287 286 285 285 285 286 287 288 288 288 288 288 288 288 289 289 289 290 290 290 290 290 291 290 290 290 290 290 291 291 292 292 292 293
303 301 300 299 299 299 298 296 296 296 296 297 297 297 297 296 296 296 296 297 297 297 297 297 298 298 298 298 298 296 295 294 293 293 292 292 292 292 292 292 291 290 289 288 288 287 287 287 287 287 287 287 286 286 285 284 285 286 287 288 288 288 289 289 289 289 289 289 289 289 289 290 290 290 290 289 289 289 289 289 290 290 291 292 293 293
302 301 300 299 298 298 298 297 296 296 296 296 296 296 296 296 296 295 295 295 295 296 296 296 296 297 297 297 296 295 294 293 292 292 292 292 293 293 293 292 291 290 288 288 288 287 286 286 286 287 287 286 286 285 284 284 285 286 287 287 287 288 288 289 289 289 289 289 289 289 289 289 289 289 289 289 289 288 288 288 289 289 290 291 292 293
301 301 300 298 297 297 297 296 296 296 295 295 295 295 296 296 296 296 296 295 294 294 294 295 296 296 296 296 295 294 293 293 292 292 293 293 293 293 293 292 291 289 288 288 288 287 286 286 285 285 285 285 285 284 284 284 285 285 286 287 287 287 288 288 289 289 289 289 289 289 289 289 289 289 289 289 289 289 288 288 288 289 290 291 292 293
301 300 299 298 296 296 295 295 294 294 294 295 296 296 296 296 296 297 297 296 295 294 293 294 295 296 296 295 295 293 292 292 293 293 293 293 293 293 293 291 290 289 288 288 288 287 286 285 285 284 284 284 284 284 284 284 285 286 287 287 287 287 287 288 288 288 289 289 289 289 290 290 290 290 290 290 290 289 289 289 288 289 290 291 292 293
300 299 298 297 296 295 295 294 294 294 294 295 297 298 298 297 296 296 296 295 294 293 293 293 294 294 295 295 295 294 293 292 293 293 293 293 293 292 292 291 290 289 289 288 288 287 286 285 284 284 283 283 284 284 284 284 285 286 287 287 288 288 287 287 287 288 288 289 289 289 290 290 290 290 290 290 290 290 289 289 289 289 290 291 291 292
300 299 298 298 297 296 295 294 294 295 296 296 297 298 298 296 295 296 296 294 293 292 292 292 292 292 293 294 294 294 294 293 292 292 293 293 293 292 292 290 289 289 289 288 287 286 285 284 284 283 284 284 285 285 285 286 286 287 288 288 288 288 287 287 287 287 288 288 289 289 290 290 290 290 290 290 290 290 289 289 289 289 289 290 291 292
300 299 299 299 299 298 297 296 296 296 297 297 297 297 297 296 295 295 295 293 292 291 292 292 292 291 291 292 293 294 294 293 292 292 292 292 292 292 291 290 289 289 289 288 287 286 285 284 284 283 284 284 284 285 286 287 287 287 288 288 288 288 287 287 287 287 287 288 288 289 289 290 290 290 290 290 290 289 289 289 289 289 289 290 290 291
301 300 301 301 301 300 299 297 297 297 297 297 296 296 296 295 295 295 295 293 292 291 292 293 293 293 292 291 292 293 294 293 292 291 291 292 292 291 291 290 289 288 288 288 286 285 284 284 284 284 284 284 284 285 286 287 287 287 288 288 288 288 287 287 287 287 287 288 288 289 289 289 289 290 290 290 289 289 289 289 289 289 289 289 289 290
302 301 302 302 302 301 300 298 297 297 297 296 295 295 295 295 295 295 294 293 292 292 293 294 294 295 295 293 291 291 293 293 292 291 290 291 291 291 290 289 289 288 288 287 286 285 284 284 284 284 284 284 284 285 286 287 287 287 288 288 287 287 287 287 287 287 288 288 288 288 289 289 289 289 289 289 289 289 289 289 289 289 289 288 289 289
302 302 302 302 303 302 300 299 298 297 297 296 295 294 294 294 294 294 294 293 293 293 294 294 295 295 296 295 293 291 292 293 292 290 290 289 290 290 290 289 288 288 287 286 285 284 284 284 284 284 284 284 284 285 286 287 287 288 288 287 287 287 287 287 287 288 288 288 289 288 288 289 289 289 289 289 289 289 289 289 289 289 289 289 288 289
302 302 302 302 302 302 300 299 298 297 296 296 295 294 294 294 294 294 294 293 293 294 294 295 295 295 294 292 291 291 293 292 291 290 290 289 289 289 289 289 288 287 286 285 285 284 284 284 284 284 284 284 284 285 286 287 287 287 287 287 287 286 286 287 287 288 288 289 289 289 289 289 289 289 289 289 289 289 289 289 289 289 289 289 289 289
302 302 301 302 302 301 300 299 298 297 297 296 295 294 294 294 294 294 294 294 294 294 294 295 295 293 291 290 290 292 292 292 291 290 289 288 288 288 289 288 287 286 285 285 284 284 284 284 284 284 284 284 284 285 287 287 287 287 287 286 286 286 286 287 287 288 288 288 288 289 289 288 288 288 288 288 289 289 289 289 289 289 289 289 289 289
301 301 301 300 300 300 300 299 298 297 297 296 295 294 294 294 294 294 294 294 294 294 294 295 294 291 290 290 291 292 292 292 290 289 289 288 288 288 288 288 287 286 285 285 284 284 283 284 284 284 284 284 284 285 287 287 287 287 286 286 286 286 286 287 287 288 288 288 288 288 288 288 288 288 288 288 288 288 288 289 289 289 289 289 289 289
300 300 300 299 299 299 299 298 297 297 297 296 296 295 295 294 294 294 294 294 294 294 293 292 291 291 291 291 291 291 291 291 290 289 288 288 288 287 287 287 286 285 285 284 284 284 284 284 284 284 284 284 284 285 287 287 287 287 287 287 287 286 287 287 287 287 287 287 288 288 288 288 288 288 288 288 288 288 288 288 288 289 289 289 289 289
298 299 299 298 298 299 299 298 297 297 296 296 295 295 295 294 294 294 294 294 293 293 292 291 291 290 290 290 290 290 290 290 290 289 288 289 288 287 287 286 285 285 285 284 284 284 284 284 284 284 284 284 285 286 287 287 287 287 287 287 287 287 286 287 287 287 287 287 287 287 287 287 287 287 287 287 287 288 288 288 288 288 288 288 288 288
298 298 297 297 298 298 298 298 297 297 296 295 295 294 294 294 294 294 293 293 292 291 291 290 289 288 288 288 289 289 289 289 289 288 288 288 287 286 286 286 285 285 285 284 284 284 284 284 284 284 284 285 285 286 287 287 287 287 287 287 287 287 286 286 286 287 287 287 287 287 287 287 287 287 287 287 287 287 287 287 288 288 288 288 288 288
297 297 297 297 297 297 297 297 297 297 296 296 295 294 294 294 294 293 293 292 291 290 290 289 289 288 287 286 287 287 288 288 288 288 287 287 286 285 286 285 285 284 285 284 284 284 284 284 284 284 285 285 286 287 287 287 287 287 287 287 287 287 287 286 286 286 286 286 287 287 287 287 287 287 287 287 287 287 287 287 287 287 287 287 287 287
296 296 296 297 297 297 297 297 296 296 296 295 295 295 294 294 293 292 291 290 290 290 290 290 290 288 286 286 286 287 287 287 287 288 287 287 286 285 285 285 284 284 284 284 284 284 284 284 284 285 285 286 286 287 287 287 287 287 287 287 286 287 287 287 287 287 286 286 286 286 286 287 286 287 286 287 287 287 287 287 287 287 287 287 287 287
295 295 296 296 297 296 296 296 295 295 295 295 295 294 294 293 292 291 290 290 290 290 290 291 291 289 288 287 286 286 287 287 287 287 287 286 286 285 284 284 284 284 284 284 284 283 284 284 284 285 286 286 286 287 287 287 287 286 286 286 286 286 286 287 287 286 286 286 286 286 286 286 286 286 286 287 287 287 287 287 287 287 287 287 287 288
294 295 295 295 295 295 295 295 294 294 294 294 294 293 293 293 292 292 291 291 290 290 291 291 291 290 289 288 286 286 286 286 287 287 287 286 285 285 284 284 284 284 284 284 284 283 283 284 284 285 285 286 286 286 287 286 286 286 286 286 286 286 286 286 286 286 286 286 286 286 286 286 286 286 286 286 286 287 287 287 287 287 287 287 287 287
293 293 294 294 294 294 294 294 293 293 293 293 292 292 292 292 292 292 292 292 291 290 291 291 290 289 288 287 286 286 286 286 287 287 286 286 285 284 284 284 283 283 284 284 285 285 285 284 284 284 285 285 286 286 286 286 286 286 285 285 285 285 285 285 285 284 285 285 285 285 286 286 286 286 286 286 286 286 286 286 287 287 287 287 287 287
292 292 292 292 292 292 292 292 291 291 291 291 292 292 292 292 292 293 293 292 291 290 290 290 289 288 288 288 288 288 287 286 286 287 286 285 285 284 283 283 283 283 284 285 286 287 287 286 284 284 284 285 285 286 286 286 286 285 285 285 284 284 284 284 284 284 284 284 284 285 285 285 285 286 286 286 286 286 286 286 286 287 287 287 287 287
291 291 291 291 291 291 291 291 290 290 291 291 291 292 291 291 291 291 291 292 291 291 290 290 289 288 288 289 289 289 288 286 286 286 286 285 284 284 283 283 283 283 283 285 286 288 288 287 285 284 284 284 285 285 286 286 286 286 285 285 284 284 284 284 284 284 284 284 284 284 284 285 285 285 285 285 285 285 285 285 286 286 287 287 287 287
290 290 291 291 291 291 291 290 290 290 291 291 290 290 290 290 290 290 290 290 290 290 290 290 289 288 288 288 288 287 286 285 286 286 285 285 284 284 283 283 283 283 283 284 285 286 287 287 285 284 284 284 284 284 285 285 285 285 285 285 285 284 285 285 285 284 284 284 283 283 284 284 284 284 285 285 285 285 285 285 286 286 287 287 287 287
289 289 289 289 289 289 290 290 290 290 290 289 289 289 289 289 289 289 289 289 289 289 289 289 288 288 287 287 286 285 285 285 285 285 285 284 284 283 283 283 283 283 283 283 284 284 284 285 285 284 284 284 284 284 284 285 285 285 285 285 285 284 284 284 284 284 284 283 283 283 283 284 284 284 284 284 284 284 284 285 285 286 286 287 287 287
288 288 288 288 288 288 288 288 288 288 288 288 288 287 288 288 288 288 288 288 288 288 287 287 287 287 287 286 286 285 284 284 284 284 284 284 284 284 283 283 283 283 283 283 284 284 284 284 284 285 285 284 284 284 284 284 284 285 285 285 284 284 284 284 284 284 283 283 283 283 283 283 283 283 283 283 283 283 284 284 285 285 286 286 286 286
288 288 288 287 287 287 287 286 286 287 287 287 287 287 287 287 287 287 287 287 287 287 286 286 286 286 286 286 285 285 285 284 284 284 284 284 284 284 283 283 283 284 284 284 284 285 285 284 284 285 285 285 285 284 284 284 284 284 284 284 284 284 284 284 283 283 283 283 283 283 283 283 283 283 283 283 283 283 284 284 285 285 285 285 285 285
288 288 287 287 287 287 286 286 286 286 286 286 286 286 286 286 286 286 286 286 286 286 286 285 285 285 285 285 284 284 284 284 284 283 284 284 284 284 284 284 284 284 284 284 285 285 285 285 284 284 285 285 286 285 284 283 284 284 284 284 284 283 283 283 283 283 283 283 283 283 283 284 284 283 283 284 284 284 283 284 284 284 285 285 285 285
288 287 287 287 287 287 286 286 286 286 286 286 286 286 286 285 285 285 285 285 285 285 285 284 284 284 283 283 283 283 283 283 283 283 283 284 284 284 284 284 284 284 284 284 284 284 285 285 285 285 284 285 285 284 284 283 283 283 283 283 283 283 283 283 283 283 283 283 283 283 284 284 284 284 284 284 284 284 283 283 283 284 284 284 285 285
288 287 287 286 286 286 286 286 286 286 286 286 286 285 285 285 285 284 284 284 284 284 283 283 283 282 282 282 282 282 282 282 283 283 283 284 284 284 284 284 284 284 284 284 284 284 284 285 285 285 285 285 284 284 283 282 282 282 283 282 283 283 283 283 283 283 283 283 283 283 283 284 284 284 284 284 284 283 283 283 283 283 283 284 284 284
287 287 287 286 286 286 286 286 286 286 286 286 285 285 285 285 284 284 284 283 283 283 282 282 282 282 281 281 281 281 281 282 282 283 283 283 284 284 284 284 284 284 284 283 283 283 284 284 284 285 285 285 284 284 283 282 282 282 282 283 283 283 283 283 283 283 283 283 283 283 283 283 284 284 284 283 283 283 283 283 283 283 283 283 283 283
287 287 286 286 286 286 286 286 286 286 286 285 285 285 284 284 284 283 283 283 282 282 282 281 281 281 281 281 281 281 281 281 282 282 283 283 283 283 283 283 283 283 283 283 283 283 283 284 284 284 284 284 284 284 283 283 282 282 282 283 283 283 283 282 282 282 282 283 283 283 283 283 283 283 283 283 283 283 284 284 284 284 284 284 283 283
287 287 286 286 286 286 286 286 286 286 285 285 285 284 284 284 284 283 283 282 282 282 282 281 281 281 281 281 280 280 281 281 281 282 282 283 283 283 283 283 283 283 283 283 283 282 283 283 283 283 283 283 283 283 283 283 283 282 282 282 283 283 282 282 282 282 282 282 283 283 283 283 283 283 283 283 283 284 284 284 284 284 284 284 284 284
287 286 286 285 286 286 286 285 285 285 285 284 284 284 284 284 283 283 282 282 282 282 281 281 281 281 281 281 281 281 281 281 281 282 282 283 283 283 283 283 283 283 283 282 282 282 282 282 282 282 283 283 282 283 283 283 283 282 282 282 282 282 283 283 282 282 282 283 283 283 283 283 283 283 283 283 283 284 284 284 284 284 284 284 283 284
286 285 285 286 286 285 285 285 285 285 284 284 284 284 284 283 283 283 282 282 282 282 282 281 281 282 282 282 281 281 281 281 281 281 282 282 283 283 283 283 283 282 282 282 282 282 281 281 281 282 282 281 281 282 282 282 282 282 282 282 281 282 282 283 283 282 282 282 283 283 283 283 282 282 282 283 283 283 283 284 284 284 284 284 283 283
285 285 285 285 285 285 285 285 285 285 284 284 284 284 284 283 283 282 282 282 282 282 282 281 281 282 283 283 282 281 281 281 281 281 281 282 282 282 282 282 282 282 282 281 281 281 281 281 281 281 281 281 281 281 281 282 282 282 282 282 281 281 281 282 282 282 282 282 282 282 283 283 282 282 282 282 282 282 283 283 283 283 283 283 283 283
285 285 285 285 285 284 284 284 284 284 284 284 283 283 283 283 283 282 282 282 282 282 281 281 281 282 283 283 283 282 282 281 281 281 281 281 281 281 282 281 281 281 281 281 281 281 281 281 281 281 281 281 281 281 281 281 282 282 283 282 282 282 281 281 281 282 282 282 282 282 282 282 282 282 282 282 282 282 282 282 283 283 283 283 283 283
285 284 284 284 284 284 284 284 284 284 283 283 283 283 283 283 282 282 281 281 281 281 281 281 281 282 283 283 283 283 283 282 282 281 281 281 281 281 281 281 281 281 281 280 280 280 280 280 280 281 281 281 281 282 282 282 282 282 283 283 282 282 282 282 282 282 282 282 282 282 282 282 282 281 281 281 282 282 282 282 283 283 283 283 283 283
284 284 284 284 284 283 283 283 283 283 283 283 283 283 283 283 282 281 281 281 281 281 281 281 282 282 283 283 283 283 283 283 283 282 281 281 281 281 281 281 280 280 280 280 280 280 280 280 280 280 280 281 282 282 283 283 283 283 283 283 283 283 282 282 282 282 282 282 282 282 281 281 281 281 281 282 282 282 282 282 282 283 283 283 283 283
283 283 283 283 283 283 283 283 283 283 283 282 282 283 283 282 282 281 281 281 281 281 281 281 282 282 283 283 282 282 282 283 283 282 281 281 281 281 280 280 280 280 280 280 280 280 280 280 280 280 280 280 281 281 282 283 283 283 283 283 282 282 282 282 282 282 282 282 282 282 281 281 281 281 281 282 282 282 283 283 283 283 283 283 283 283
283 283 282 282 282 282 282 282 282 283 283 282 282 282 282 282 281 281 281 281 281 281 281 281 282 282 283 282 282 281 282 282 282 282 281 281 280 280 280 280 280 280 280 280 280 280 280 280 280 280 280 280 280 281 281 282 283 283 283 282 282 282 282 282 282 282 282 281 281 281 281 281 281 281 281 281 282 282 282 283 283 283 283 283 283 283
282 282 282 282 282 282 282 282 282 282 283 282 282 282 282 281 281 280 280 280 280 281 281 282 282 282 282 282 282 281 281 281 282 281 281 280 280 280 280 280 280 280 281 281 281 281 282 282 282 282 282 282 281 281 281 281 282 282 283 283 282 282 282 282 282 282 282 281 281 281 281 281 281 281 281 281 281 282 282 283 283 283 283 283 283 283
Wind_Speed
10 10 10 11 10 10 11 12 13 15 17 18 19 19 19 19 18 17 17 16 16 16 15 15 14 13 11 10 10 9 8 7 5 5 5 4 3 3 2 2 2 2 2 2 1 1 1 1 2 3 3 4 5 6 6 7 7 7 7 6 6 5 5 5 5 5 5 4 4 4 4 4 4 4 5 4 3 2 1 0 0 0 1 1 2 2
11 11 11 11 11 11 12 13 14 16 18 19 19 19 19 18 18 17 17 16 16 15 15 14 13 12 11 10 10 9 8 7 6 6 6 5 4 3 2 2 2 1 1 1 0 0 1 1 1 2 2 3 4 5 6 7 8 8 8 7 7 7 6 6 6 5 5 5 5 5 5 4 4 4 4 3 3 2 2 1 1 1 1 1 1 1
11 11 11 12 12 12 13 13 14 15 17 18 19 19 19 19 18 18 17 16 16 15 14 14 13 12 12 11 10 9 9 8 7 7 6 5 4 3 2 2 2 1 1 0 1 1 2 2 2 2 2 2 2 4 5 6 7 8 9 9 9 8 8 7 7 7 7 7 6 6 6 5 4 4 3 3 2 2 2 2 1 1 1 1 1 1
12 12 12 12 12 12 13 13 14 15 17 18 18 19 19 19 19 18 18 17 16 14 14 14 14 13 13 11 10 9 9 9 8 8 7 6 5 4 3 3 2 2 1 1 2 2 2 2 2 2 2 2 3 3 4 5 6 8 9 9 9 9 9 9 9 8 8 8 8 7 6 6 5 4 4 3 2 2 2 2 1 1 1 0 0 1
11 12 13 13 12 12 13 14 15 16 18 18 18 19 19 19 19 18 18 17 16 15 14 14 14 14 14 12 10 9 10 10 9 9 8 7 6 5 4 3 2 1 1 1 2 2 2 2 2 2 2 3 3 3 3 4 4 6 7 9 10 10 10 10 9 9 9 8 8 7 7 6 5 5 4 4 3 2 2 1 1 1 1 0 0 1
10 11 13 12 12 13 15 16 17 17 18 18 19 19 19 19 19 18 17 16 16 15 15 15 14 14 14 13 11 10 10 11 10 10 9 8 7 6 5 3 2 1 1 1 2 2 2 2 2 2 2 3 3 3 3 3 3 3 5 6 8 9 9 9 9 9 9 8 8 7 7 6 6 6 5 5 4 3 2 1 1 0 0 0 0 0
10 11 12 13 13 14 16 17 18 18 18 17 18 19 19 19 18 18 17 17 16 16 16 16 15 15 14 13 11 11 12 12 11 10 9 8 7 6 5 4 2 1 1 2 2 2 2 2 2 2 2 2 2 2 2 2 1 1 2 4 5 7 7 8 8 8 8 8 8 8 7 7 7 6 6 6 5 5 3 2 1 1 1 1 1 1
11 11 13 13 14 14 15 16 17 17 18 17 17 18 18 18 18 17 17 16 16 16 16 16 16 16 15 14 13 12 12 12 11 10 9 8 8 7 6 4 2 1 2 2 2 2 2 2 2 2 2 2 2 2 2 1 0 1 2 3 4 4 5 6 6 6 6 7 7 7 7 7 7 7 6 6 6 6 5 4 2 1 1 1 1 2
12 12 13 14 14 14 14 15 16 17 17 17 17 16 17 17 17 16 16 16 16 16 17 17 18 17 17 16 15 14 13 12 11 10 9 9 8 8 6 4 3 2 2 2 2 2 2 2 2 2 2 2 3 3 2 1 1 3 4 4 4 4 4 4 4 5 5 5 6 6 6 6 6 6 6 6 6 6 6 5 4 2 2 2 2 2
12 12 12 12 14 14 13 13 15 18 18 17 16 16 16 16 15 15 15 16 16 16 17 18 18 18 18 18 17 15 14 13 13 13 12 11 10 9 7 5 3 3 3 3 3 3 3 2 2 2 2 3 3 3 2 1 1 3 4 5 5 5 4 4 4 4 4 5 5 5 6 6 6 5 5 5 5 5 6 5 5 4 3 3 2 2
11 11 11 11 13 14 13 13 16 20 20 19 17 15 15 15 15 14 13 14 15 16 17 18 19 19 19 19 18 17 15 15 15 16 15 14 12 10 8 6 5 4 4 4 4 4 4 3 3 3 3 4 4 3 2 1 2 3 4 4 5 5 4 4 4 4 4 4 4 4 5 5 5 5 4 4 4 4 4 5 5 5 5 4 3 3
11 11 10 11 12 14 14 14 17 20 20 18 15 13 13 14 15 14 12 12 13 15 16 19 21 21 21 21 20 18 17 17 17 17 16 14 12 10 8 6 6 6 5 6 6 6 5 5 4 4 4 4 4 4 2 2 2 3 4 4 4 4 5 5 5 5 4 4 4 4 4 4 4 4 3 3 3 2 3 4 5 6 6 6 5 4
11 11 11 11 12 13 13 14 15 17 18 16 14 12 12 14 15 14 12 12 13 14 17 19 20 22 23 24 22 20 18 18 18 17 15 14 12 10 8 7 7 6 6 6 6 6 6 5 5 4 4 4 4 3 2 2 3 4 4 3 3 4 4 5 5 5 5 5 4 4 4 4 4 4 4 3 3 3 3 3 5 6 7 6 5 5
10 11 10 10 10 12 13 14 15 15 16 16 14 13 12 14 16 16 13 12 13 15 16 16 18 20 23 24 24 23 20 19 18 16 15 13 12 10 9 8 8 7 7 6 7 6 6 5 4 4 4 3 3 2 1 2 2 3 3 2 2 2 3 5 6 6 6 6 6 5 5 4 4 4 4 4 4 3 3 4 5 6 7 7 6 5
10 10 9 8 9 10 12 13 14 14 15 15 15 14 14 15 18 18 15 13 13 15 15 14 14 17 20 22 23 23 21 19 17 16 15 14 13 11 10 9 8 8 8 7 7 6 6 4 3 3 3 3 3 3 2 1 1 2 2 2 2 2 2 4 5 6 6 6 6 6 6 5 4 4 4 4 4 4 3 3 4 6 7 7 6 6
11 11 9 8 9 10 12 13 14 14 14 15 16 16 15 16 18 18 15 13 14 15 14 11 9 10 14 19 22 22 21 19 17 15 15 14 13 12 11 9 9 9 8 7 6 6 5 4 3 4 4 5 5 5 4 2 2 2 2 2 2 2 2 2 4 5 6 7 7 7 6 6 5 4 4 4 4 3 3 3 3 5 6 7 7 6
11 11 10 9 9 9 11 12 14 14 13 15 17 18 17 17 18 18 15 14 15 15 12 11 9 7 8 12 18 21 21 19 16 14 14 14 14 13 12 10 9 8 8 7 6 5 4 4 4 5 5 6 6 5 4 3 2 2 3 3 3 3 2 2 4 5 5 6 6 7 6 6 6 5 4 4 3 3 2 2 2 3 5 6 7 7
11 11 10 10 9 9 10 11 13 15 14 16 18 18 18 17 17 17 16 15 15 14 12 11 10 9 8 9 14 21 23 20 16 13 12 12 14 14 13 11 9 9 8 7 7 5 4 4 5 6 6 6 6 6 4 3 2 3 3 4 4 3 2 3 5 5 4 4 5 5 6 6 6 5 5 4 4 3 2 2 1 2 3 5 6 7
11 12 11 11 11 10 10 11 14 16 16 17 18 18 17 16 16 16 16 15 15 14 13 12 11 10 9 8 14 21 24 22 18 12 10 10 13 15 13 11 9 8 8 7 7 6 5 5 5 6 6 6 6 6 5 3 3 3 4 4 4 3 3 5 6 6 4 3 3 4 4 5 5 5 5 4 4 3 3 2 2 1 1 2 4 6
12 12 12 12 11 10 10 12 14 16 17 17 18 18 17 16 16 15 14 14 14 14 13 11 10 9 8 8 13 19 23 23 19 13 9 8 12 14 13 11 9 8 7 7 7 6 5 5 5 5 5 6 6 5 4 3 3 4 4 4 4 3 4 7 7 6 4 4 4 4 4 4 4 5 5 5 4 4 3 2 2 1 1 1 2 4
11 11 11 11 11 10 10 11 14 17 18 18 18 18 17 16 15 15 14 14 13 13 12 11 10 9 10 10 13 17 21 21 18 13 9 8 11 13 13 11 9 7 6 7 7 6 5 5 5 5 5 6 6 6 4 3 3 4 4 3 3 3 6 7 7 6 5 4 4 4 5 5 5 5 5 5 5 5 4 3 2 2 1 1 1 2
10 9 10 11 11 11 10 10 12 16 18 19 19 18 16 16 15 15 14 14 13 12 11 11 10 11 14 15 15 16 18 20 18 14 10 7 8 11 13 11 9 7 5 6 7 6 5 5 5 5 6 6 7 6 5 4 4 4 3 2 3 5 7 7 7 6 5 5 5 5 5 5 6 6 6 6 7 6 6 5 3 2 2 2 1 1
9 8 8 10 12 12 10 10 12 14 17 18 18 17 16 16 16 15 14 14 13 13 13 14 14 15 15 15 14 14 15 17 18 17 11 7 6 8 12 11 9 7 5 7 7 6 5 5 5 5 5 6 7 7 5 4 4 3 3 3 4 5 7 7 6 6 5 5 5 5 5 5 5 5 6 6 7 7 7 6 5 4 3 2 2 1
10 8 8 10 13 14 13 12 13 14 15 17 17 16 15 16 16 15 14 15 15 16 16 17 15 13 13 13 13 13 13 14 16 16 12 7 6 8 10 10 9 8 6 7 7 6 5 4 4 5 6 6 7 6 5 5 5 4 3 3 4 5 6 6 6 6 5 5 5 4 4 4 4 4 5 5 6 7 7 7 6 5 4 3 2 2
13 12 11 12 13 13 14 14 14 14 14 16 18 18 18 18 18 17 17 17 17 17 16 14 11 10 11 12 13 14 14 13 14 15 13 7 6 8 10 10 9 7 6 8 8 6 5 4 4 5 6 7 6 6 5 5 5 5 4 4 4 4 5 5 5 5 5 5 5 4 4 4 4 4 4 5 5 5 6 6 6 6 5 4 4 5
13 13 13 12 12 12 13 13 13 12 13 15 17 19 19 19 18 17 16 16 16 15 14 12 9 8 10 12 13 14 15 14 14 14 13 9 6 7 9 10 10 9 5 7 8 6 5 4 5 6 8 8 8 7 5 6 5 5 4 4 4 4 3 3 3 4 4 4 4 4 4 4 4 4 4 4 5 5 5 6 6 6 6 6 6 6
9 9 10 10 10 11 11 11 11 10 11 12 15 18 19 19 17 16 14 15 16 15 13 10 8 8 8 9 10 13 16 16 15 14 13 10 7 6 9 10 10 9 6 7 7 7 6 5 5 7 10 10 10 9 8 8 7 6 5 5 4 4 4 4 3 3 3 4 4 4 4 4 4 4 4 4 4 4 4 5 5 6 6 6 5 5
6 7 7 8 10 10 11 10 9 9 9 11 13 16 17 17 16 15 14 16 17 15 12 11 9 8 7 7 9 13 17 17 16 15 13 11 7 5 9 10 11 10 7 6 7 8 7 7 7 9 11 12 11 11 11 10 10 9 8 7 6 6 5 5 5 4 4 4 4 4 4 4 4 3 3 3 3 3 3 3 4 4 5 4 4 4
6 6 7 8 9 10 10 10 9 9 9 10 12 14 15 15 15 15 16 18 17 15 11 10 9 9 8 8 9 12 15 17 17 16 13 11 7 6 10 11 12 11 8 6 5 5 5 7 9 10 11 13 13 11 11 10 10 10 9 9 8 7 7 6 5 5 5 5 5 5 5 5 5 5 4 4 4 3 3 3 3 3 3 3 4 4
6 7 7 8 8 9 9 9 9 9 10 11 12 14 14 14 14 15 16 18 18 15 11 10 10 10 10 8 7 6 9 15 17 17 15 11 7 7 10 11 13 12 9 6 4 3 3 6 9 11 12 13 14 13 12 11 10 10 9 8 8 7 7 6 5 4 5 5 6 6 7 6 6 6 6 6 5 5 5 5 4 3 3 4 4 4
8 8 8 8 9 9 9 9 10 11 11 12 13 13 13 13 12 13 14 16 17 16 13 11 11 12 12 8 5 2 4 12 17 18 16 12 8 8 10 12 13 14 12 8 4 2 3 4 7 10 13 14 14 14 14 13 12 11 10 9 8 8 8 7 6 5 6 6 7 7 8 8 8 8 8 7 7 6 6 6 5 4 4 4 4 4
9 10 10 11 11 11 11 12 12 12 13 13 13 12 12 11 10 10 11 13 15 16 14 14 13 14 13 10 6 4 4 10 15 18 17 13 10 10 11 12 13 15 15 11 6 2 2 3 4 8 12 13 14 14 15 15 14 13 12 11 10 10 10 9 8 8 8 8 8 8 9 9 10 9 9 9 8 8 7 7 5 4 4 4 4 4
10 10 11 12 13 13 13 13 13 13 13 13 13 12 11 11 10 9 10 12 14 15 15 14 14 14 13 11 8 6 5 7 11 15 18 15 12 11 12 12 13 14 15 14 9 4 1 2 3 5 9 12 13 14 16 16 16 15 14 13 12 12 12 11 10 9 9 9 9 9 10 10 10 11 10 10 9 9 8 7 6 5 5 5 5 5
10 10 11 12 12 13 13 13 13 13 13 13 13 12 12 11 11 11 10 11 12 13 13 13 13 14 13 11 9 7 7 7 8 12 16 17 14 12 13 13 12 13 14 13 11 7 3 2 3 4 5 8 11 13 14 16 16 16 15 14 14 13 13 12 10 10 9 9 9 9 10 10 11 11 11 11 10 9 9 8 7 6 6 5 5 5
10 10 11 11 11 12 12 12 13 13 13 13 13 12 12 12 11 11 12 12 12 12 12 11 12 13 13 12 9 7 8 8 8 10 14 18 16 13 13 13 13 12 12 10 9 6 4 3 3 4 4 4 7 10 13 14 15 15 14 14 14 14 13 11 10 9 9 8 8 9 9 10 10 11 11 11 10 10 10 9 9 8 7 7 6 6
9 10 10 10 10 10 11 12 13 13 13 13 12 12 11 11 11 11 11 11 11 11 11 11 11 12 13 12 10 9 10 10 9 10 13 16 16 14 13 13 14 13 11 9 8 6 5 4 4 4 4 3 4 5 9 12 13 13 13 13 13 12 12 11 9 8 8 8 8 8 9 10 10 10 11 11 11 11 11 11 11 11 10 9 9 8
9 9 9 10 10 10 10 12 13 13 13 12 12 11 10 10 10 10 10 10 10 10 10 11 11 11 12 12 12 12 11 10 10 10 11 14 15 14 12 13 14 13 11 9 8 7 5 4 4 4 4 3 3 3 5 8 10 11 11 11 11 11 10 9 9 8 7 7 7 8 9 9 10 10 10 11 11 11 11 11 11 11 12 12 11 11
8 9 9 10 10 10 10 11 12 12 12 11 11 10 9 9 9 9 9 9 9 9 10 10 10 11 11 11 11 11 11 10 10 10 11 13 14 14 12 12 13 13 12 10 8 8 6 5 4 4 4 4 4 4 5 6 7 8 9 10 10 10 9 9 8 8 7 7 8 8 9 9 10 10 10 10 10 10 10 10 11 11 12 12 12 12
9 9 10 10 10 10 9 10 12 12 12 11 10 9 9 8 8 8 8 8 8 8 8 9 9 9 10 10 10 10 10 10 10 11 11 12 14 14 13 12 11 12 12 11 10 8 7 5 5 5 4 4 4 4 6 6 6 6 7 8 9 10 10 10 9 9 8 8 8 9 9 9 9 9 9 9 9 9 9 10 11 11 12 12 13 13
9 9 9 11 12 11 11 11 12 12 11 10 9 8 8 8 8 8 8 8 8 8 8 8 8 8 8 9 9 10 10 10 11 11 11 12 13 13 13 12 11 11 11 11 11 9 7 5 4 4 3 3 3 3 4 5 6 7 7 6 6 8 10 11 10 10 10 9 9 9 9 10 10 10 9 9 9 9 10 10 11 11 11 12 12 12
9 9 9 11 13 14 14 13 13 11 10 9 9 8 8 8 8 8 8 8 8 8 8 8 7 7 7 8 8 9 10 10 10 11 11 12 13 13 13 12 11 10 11 11 11 10 7 5 4 4 3 3 2 2 3 4 5 7 7 5 4 5 7 10 11 12 11 10 10 10 10 10 10 10 10 10 10 11 11 11 11 11 11 11 11 11
9 9 10 13 15 15 14 12 11 10 10 9 9 8 8 8 8 9 9 9 9 9 9 8 7 7 7 7 8 8 9 10 10 11 12 12 13 13 13 12 11 11 10 10 10 10 8 6 5 4 3 3 3 3 3 3 5 6 7 6 5 5 7 8 10 11 10 10 10 10 10 10 10 10 10 11 11 12 12 11 11 11 11 11 11 12
9 10 12 14 15 14 13 12 11 11 10 10 10 10 9 9 9 9 10 10 11 10 10 9 8 7 7 7 7 8 9 10 10 11 11 12 13 13 13 12 12 11 10 10 9 9 9 8 7 6 5 5 4 3 4 3 4 5 6 7 7 5 3 4 7 9 9 9 9 9 10 10 11 11 11 12 12 12 12 11 11 11 11 11 12 12
10 12 14 15 14 13 13 12 12 12 12 11 11 11 10 10 10 10 11 11 12 12 11 10 9 7 6 6 7 8 9 10 10 11 11 12 12 12 12 12 12 11 10 9 8 7 7 7 7 7 7 7 6 5 5 5 5 5 6 7 8 8 6 6 6 8 9 9 10 10 10 10 11 12 12 12 13 13 12 12 12 12 12 12 12 12
13 14 14 14 14 14 14 14 14 13 13 13 13 12 11 11 11 11 12 12 12 13 12 12 9 7 6 5 6 7 8 9 10 11 11 11 12 12 12 11 11 11 10 9 8 7 6 5 5 6 7 8 8 7 7 6 6 6 6 8 9 10 10 10 9 10 9 10 10 10 11 11 11 12 12 13 13 13 13 13 13 12 12 12 13 13
14 14 15 15 15 15 15 15 15 15 14 14 14 13 13 12 12 12 12 12 13 13 13 12 10 7 6 6 6 7 7 8 9 10 11 12 12 12 11 11 11 11 10 10 9 9 8 6 5 5 5 6 7 7 8 7 7 6 7 7 8 9 10 10 11 11 10 9 9 9 11 11 11 11 12 12 12 12 12 13 13 13 13 13 13 13
14 14 15 15 15 15 15 15 15 15 15 15 15 15 14 13 13 13 13 13 13 14 14 12 9 7 6 6 7 7 7 7 8 10 11 12 12 12 11 11 11 10 10 10 9 9 9 9 9 8 6 5 5 6 7 7 7 7 7 7 7 7 8 9 9 10 10 9 9 9 11 11 11 11 11 10 10 10 11 12 14 14 14 14 14 14
14 15 15 15 15 15 15 16 16 15 14 14 15 16 15 14 14 14 14 14 14 14 13 11 9 7 6 6 7 7 7 7 7 8 10 12 12 12 11 11 10 9 9 9 9 9 10 10 10 10 9 8 6 5 5 6 6 7 7 6 6 7 7 7 8 8 9 10 10 10 11 11 10 10 9 9 9 9 10 11 12 14 15 15 15 15
14 15 15 15 15 15 15 15 16 14 13 13 15 16 16 15 15 15 14 15 14 13 12 10 9 7 6 6 7 8 7 7 7 7 9 11 11 11 11 10 9 9 9 9 9 9 9 10 11 12 12 12 10 8 6 6 6 6 6 6 7 7 7 6 7 7 8 9 10 11 11 11 11 10 9 8 8 9 9 9 10 12 13 14 15 15
14 14 15 15 15 14 15 15 15 14 12 12 14 16 17 16 16 15 15 15 14 12 11 10 9 8 7 7 8 8 8 7 6 7 8 10 11 11 10 9 8 8 7 6 6 7 7 8 10 11 12 12 13 12 11 8 6 6 6 7 7 7 7 6 6 7 7 8 9 10 11 11 11 11 10 10 9 9 9 9 10 10 11 13 14 14
13 14 14 14 14 14 14 15 15 14 12 12 14 16 17 17 16 16 16 15 14 11 10 9 8 8 7 7 8 9 9 8 7 6 7 9 11 11 10 9 8 6 5 4 4 4 3 3 5 7 9 10 10 11 12 11 8 7 6 6 7 7 7 6 6 6 7 7 8 9 10 10 11 11 11 10 9 9 9 9 9 9 9 10 11 12
Wind_Direction
219 223 231 235 234 229 227 231 228 222 220 220 215 210 208 206 207 208 210 211 213 213 214 214 211 207 205 202 202 203 203 203 198 188 179 178 189 203 213 219 222 224 223 224 225 223 222 218 211 205 198 194 192 190 188 184 178 171 163 157 150 140 132 129 130 136 142 149 157 161 163 172 182 193 200 206 209 210 207 195 52 80 106 116 101 76
215 218 222 229 228 223 220 225 225 220 217 215 213 210 205 204 204 207 208 210 211 211 210 209 207 203 199 195 198 201 201 199 193 185 176 179 185 194 200 202 205 203 203 205 259 321 322 297 269 246 230 218 215 213 211 207 201 194 186 181 176 171 165 159 157 159 160 162 159 156 161 172 180 184 189 196 198 194 189 174 148 119 110 111 91 54
207 208 213 221 221 217 213 215 217 218 217 215 213 210 205 204 204 206 207 207 208 208 207 205 200 195 190 188 192 196 196 194 189 183 178 178 178 178 175 168 163 156 141 59 14 5 357 349 335 318 298 272 250 236 230 224 218 212 206 199 194 189 185 183 181 179 179 177 175 173 176 178 178 177 174 177 182 188 195 196 194 185 160 130 92 42
202 200 205 211 213 212 211 208 208 210 212 213 213 210 206 205 206 207 208 207 206 205 204 203 199 192 186 184 187 192 192 191 187 184 182 174 168 165 163 156 148 135 95 26 8 4 4 4 358 349 335 319 301 280 258 242 232 225 219 213 208 204 201 198 197 195 193 192 191 191 190 188 186 183 182 182 187 194 205 215 223 229 230 194 86 21
200 201 204 204 201 202 206 206 206 206 208 209 208 208 207 207 207 209 209 208 206 202 200 199 198 194 189 184 184 188 190 187 186 184 181 174 172 171 168 163 158 140 65 10 2 359 2 4 359 350 339 330 319 307 292 271 250 235 225 220 216 213 211 210 209 208 207 206 207 206 205 202 200 199 200 201 203 209 215 228 238 255 273 237 108 23
198 202 204 201 197 198 202 203 205 205 204 203 205 206 207 208 209 209 209 208 205 201 197 195 195 194 190 185 183 185 187 184 182 180 179 178 177 176 175 173 168 151 23 357 351 347 350 349 345 340 333 327 321 317 310 299 276 245 225 219 216 215 215 215 215 215 216 216 215 215 214 213 213 213 213 212 214 214 216 215 212 196 19 45 96 87
193 198 198 195 197 202 203 202 203 203 199 197 200 203 205 207 208 208 208 207 204 200 197 193 191 190 188 183 182 184 184 182 180 179 179 179 179 178 179 177 175 182 331 335 334 334 336 339 336 331 321 317 316 314 317 316 308 231 196 199 203 206 208 210 212 214 215 216 216 215 216 216 216 217 218 217 215 214 210 205 186 138 87 82 97 94
184 189 192 191 195 200 201 200 200 201 199 196 195 196 199 202 204 206 206 206 204 201 197 194 190 187 184 180 178 178 177 174 172 172 173 173 175 179 183 187 199 247 303 318 324 328 329 331 328 321 311 303 298 301 312 322 67 132 139 149 162 177 188 195 200 204 206 208 209 210 211 212 214 216 217 218 216 214 209 201 187 154 108 91 93 92
180 182 188 193 194 193 191 195 197 197 198 197 195 193 191 193 195 199 201 201 201 200 196 193 190 186 183 179 175 172 168 164 161 160 161 162 168 176 185 195 217 259 290 307 315 320 324 323 317 305 297 291 290 296 308 311 152 144 139 138 141 146 156 168 178 185 189 193 197 199 201 203 206 209 213 216 217 217 213 205 192 169 134 100 91 85
186 182 183 191 196 194 186 189 193 195 194 194 195 195 193 188 186 187 190 193 196 197 194 191 189 187 184 180 176 171 167 165 164 165 165 167 172 179 189 202 225 256 279 291 300 308 310 305 293 279 275 279 285 293 305 292 172 156 151 148 146 146 146 151 158 166 173 178 184 188 192 194 197 201 207 214 218 220 216 209 197 177 150 122 101 89
185 184 180 183 190 193 189 190 193 194 192 190 191 194 195 192 187 183 181 186 190 192 191 190 189 187 183 180 178 175 173 174 177 179 180 183 187 194 204 220 241 260 273 284 294 300 298 290 278 266 265 271 279 288 296 269 184 167 162 162 161 158 154 154 155 157 162 167 172 177 181 186 189 192 197 203 210 214 213 206 194 178 156 138 121 105
182 183 181 182 183 184 187 191 194 193 189 187 186 190 195 196 194 190 184 183 185 187 188 190 190 188 185 181 180 181 182 183 185 187 189 193 199 207 217 233 248 260 271 283 293 298 296 288 279 270 265 265 270 276 272 231 187 173 169 173 175 174 169 164 159 156 154 156 158 159 163 168 171 172 174 176 177 185 191 191 182 171 157 144 132 119
184 182 180 182 183 183 183 184 185 186 187 188 189 192 196 196 194 191 188 185 184 186 188 190 191 192 191 189 187 186 186 188 189 191 193 197 204 213 224 236 248 257 269 281 290 294 293 287 280 271 263 258 260 262 246 206 184 174 173 180 185 186 184 178 171 163 157 152 149 145 141 143 145 148 151 151 151 154 163 170 170 165 157 149 140 131
181 179 177 179 183 187 187 183 180 182 190 195 198 199 197 194 190 185 181 178 181 185 186 187 191 195 196 195 194 193 191 190 191 194 198 203 210 218 228 239 248 257 267 280 288 291 290 284 274 263 254 247 245 239 210 188 178 176 176 186 194 199 198 191 183 174 165 158 152 146 139 134 135 137 140 145 148 151 156 163 166 165 161 156 149 142
180 177 177 180 185 189 191 190 189 190 195 198 199 198 195 191 188 184 178 173 175 178 178 181 188 196 198 198 198 198 196 193 193 197 202 209 217 225 233 242 251 259 267 277 284 287 285 275 255 239 227 213 199 183 160 169 203 198 181 190 214 224 217 200 191 183 175 167 159 153 147 142 139 137 138 144 150 155 162 166 171 171 169 165 160 154
187 184 185 189 191 193 195 196 196 198 198 199 199 197 192 187 185 185 181 174 171 171 170 170 178 192 203 203 201 200 198 195 196 201 206 214 223 230 237 243 252 260 267 274 280 282 278 260 233 211 201 199 193 179 158 166 200 205 190 203 220 233 229 204 188 183 180 175 169 163 157 152 147 144 144 148 154 161 167 173 178 180 180 179 174 169
195 193 195 198 199 199 199 198 199 200 198 198 198 197 193 188 185 184 180 176 171 170 173 176 178 186 200 206 205 203 201 198 199 204 209 216 225 233 239 243 251 259 267 272 274 273 264 242 217 204 200 200 193 179 163 167 183 194 195 205 222 233 231 187 169 168 173 176 175 171 167 162 159 156 155 158 162 166 167 169 178 185 189 189 188 185
201 200 204 207 208 205 200 197 198 199 198 198 197 197 195 191 186 182 181 178 175 174 179 184 189 192 193 197 207 209 204 201 201 204 211 219 227 234 239 243 249 257 265 269 268 265 250 229 212 204 202 201 193 180 166 164 181 195 201 214 229 237 220 168 150 145 151 164 173 176 176 174 171 169 167 167 167 167 165 162 163 177 193 199 200 200
209 209 211 215 216 212 202 197 197 198 198 197 195 193 190 187 184 182 183 182 182 183 185 190 195 198 197 192 203 208 205 203 201 203 208 219 229 234 238 241 246 253 260 261 260 254 241 225 214 209 205 201 194 181 166 163 180 201 211 225 240 240 201 160 146 138 139 149 158 165 171 176 177 176 175 172 168 166 162 157 151 159 191 207 208 208
217 216 216 218 217 213 205 204 205 203 200 199 195 190 186 185 184 184 186 186 188 190 191 194 198 199 195 189 198 204 205 203 201 201 206 217 228 233 236 238 241 246 249 252 252 247 231 219 213 208 204 198 191 181 167 167 187 208 222 238 247 229 180 159 149 142 140 144 148 151 155 162 168 173 175 173 170 165 162 158 156 157 168 195 207 208
223 222 220 218 215 213 211 211 212 210 206 202 196 190 186 185 186 188 190 189 189 191 194 198 199 196 193 193 197 201 203 201 199 198 205 214 227 233 234 234 234 234 234 244 246 238 224 214 209 206 203 197 190 181 168 176 196 212 227 237 229 189 165 157 153 149 146 150 154 156 159 164 168 173 176 178 175 171 166 161 154 153 159 161 181 199
226 226 223 218 214 215 215 211 211 211 211 206 197 190 188 188 189 190 191 189 189 190 193 196 195 194 196 196 197 198 200 200 198 197 201 205 220 231 232 230 225 220 217 233 238 232 216 210 208 207 205 199 190 181 170 180 199 210 212 196 168 158 157 158 157 156 157 162 167 170 173 178 181 185 187 187 186 182 176 172 166 159 161 164 172 181
226 228 226 221 218 216 213 209 211 214 215 210 202 195 194 193 192 192 191 189 188 187 189 192 195 196 196 196 195 194 195 198 200 199 197 196 206 222 228 225 218 209 205 224 229 223 210 207 207 207 203 198 190 180 169 178 191 193 181 162 154 154 159 161 163 164 165 170 175 180 184 189 193 196 199 199 198 194 190 188 187 184 180 176 175 181
222 224 226 228 227 224 218 214 215 217 215 208 202 197 196 195 193 192 190 189 188 188 190 193 191 188 187 187 186 185 187 191 195 197 195 193 202 216 222 219 209 202 205 221 221 213 203 203 204 201 194 189 185 177 166 176 183 183 178 170 163 163 166 169 171 171 171 173 177 181 185 191 195 200 203 205 205 203 202 201 202 203 202 201 202 204
219 221 226 231 232 228 222 220 221 221 217 208 201 197 195 194 193 191 189 188 188 187 187 182 175 171 177 180 181 183 186 185 189 192 191 191 201 214 221 213 200 193 205 219 215 203 195 196 195 189 181 176 170 164 165 176 180 181 183 181 177 171 171 173 176 177 178 178 181 184 188 193 197 202 204 206 208 208 209 209 210 212 213 216 219 217
221 225 229 230 226 219 216 219 223 227 225 215 206 200 198 197 195 192 188 186 184 180 173 166 163 169 177 179 182 186 189 187 189 193 193 192 199 211 218 212 197 186 192 212 208 195 184 182 183 180 173 167 160 154 158 169 173 176 180 181 178 172 169 170 174 179 184 187 190 193 197 202 206 210 212 212 211 211 213 214 215 215 216 222 227 228
221 225 226 221 212 204 202 206 214 220 223 218 211 205 201 196 191 183 177 179 179 174 167 166 168 171 176 180 186 192 193 192 193 196 198 196 196 206 214 211 199 188 183 199 201 193 181 174 177 178 174 172 168 165 166 167 168 169 169 171 169 166 165 168 174 180 186 193 197 199 202 206 211 216 219 220 218 218 219 221 221 220 219 222 229 236
209 210 208 201 194 189 188 191 196 200 204 206 207 205 201 194 185 177 177 181 179 174 171 174 173 171 175 181 191 197 198 196 197 200 202 196 191 201 212 208 200 189 179 186 197 198 191 186 184 183 183 182 181 180 179 178 175 172 169 167 166 167 169 173 178 186 194 199 203 203 202 202 205 210 214 217 218 219 226 231 235 234 233 228 228 233
189 188 185 182 180 178 178 179 179 180 182 188 195 199 199 194 188 186 187 186 180 174 176 179 177 173 173 176 188 199 203 204 204 204 203 195 191 206 213 205 196 188 177 174 186 199 207 204 198 192 190 190 190 190 191 190 187 182 178 176 175 177 180 183 190 200 210 215 216 214 209 207 206 207 209 211 211 213 219 226 231 238 243 244 241 243
165 165 165 166 165 164 163 162 161 163 168 177 186 192 195 194 195 198 198 191 182 176 177 178 176 171 166 167 175 197 212 213 212 209 204 194 194 208 210 200 193 187 179 168 164 180 204 214 209 204 199 198 197 196 197 198 196 192 190 190 193 197 202 207 217 230 240 240 235 229 223 218 215 214 214 212 211 212 218 218 218 222 234 243 247 250
156 154 152 152 151 149 146 147 150 157 165 174 181 185 188 191 196 202 204 197 188 182 180 178 177 175 171 169 170 186 208 218 217 213 207 194 193 203 202 192 190 190 184 175 171 175 168 189 208 211 207 205 204 204 204 204 204 203 203 205 213 223 230 236 248 262 266 262 252 242 233 228 225 223 222 220 219 220 224 221 218 223 237 243 246 250
167 165 161 158 155 154 153 156 160 164 169 172 175 177 179 182 189 197 201 199 194 190 188 186 185 184 183 185 189 190 185 216 216 212 206 197 196 201 199 190 189 191 189 182 181 184 151 149 182 204 208 207 209 211 212 212 213 213 215 219 228 239 244 250 259 269 273 269 260 250 241 235 232 230 230 229 228 228 230 227 223 228 240 245 248 250
175 172 170 167 165 163 164 167 169 170 170 170 170 170 171 173 177 182 189 193 195 196 196 194 192 190 190 193 195 197 203 219 216 208 202 198 197 198 197 191 189 191 193 191 191 190 145 121 146 181 200 206 211 216 219 220 221 222 224 229 237 246 251 255 262 268 270 267 261 253 245 240 237 236 236 237 236 235 234 229 224 225 237 244 249 252
172 170 169 167 165 164 165 167 168 169 168 167 167 168 170 171 172 173 176 181 188 194 199 201 199 196 194 194 197 206 220 227 214 203 199 197 196 196 194 188 186 188 191 195 200 202 195 157 146 157 182 203 214 219 223 225 226 228 230 234 240 247 252 256 260 263 264 261 257 251 246 242 240 239 240 241 242 240 237 230 222 219 229 239 246 251
164 163 163 161 159 159 159 161 163 164 164 164 165 168 170 172 173 174 174 177 182 189 195 200 203 203 200 198 197 205 219 222 212 201 199 197 197 195 189 186 186 186 185 189 196 200 198 190 175 162 163 185 209 222 226 228 230 231 232 235 239 244 249 253 255 256 256 254 251 248 245 242 240 240 240 241 240 238 234 228 221 216 218 225 235 244
160 160 160 158 156 154 154 156 158 160 162 163 166 168 171 174 176 178 180 182 186 192 197 201 204 206 206 202 200 203 213 215 208 200 198 199 197 193 186 187 189 187 182 183 187 190 187 185 184 180 174 169 184 212 227 232 232 231 234 236 239 242 246 248 249 250 249 248 247 246 245 243 241 240 240 240 239 238 235 231 226 220 217 219 224 231
161 161 162 161 159 156 155 156 158 160 162 164 167 170 173 176 179 182 186 189 194 199 203 206 208 209 209 210 210 211 213 211 204 197 195 196 196 193 188 191 192 189 183 182 184 184 181 177 179 187 193 193 181 185 210 233 235 234 237 239 240 242 244 246 247 248 248 248 247 247 246 244 241 239 240 240 240 239 239 238 235 231 228 227 228 230
165 166 166 166 164 161 159 159 161 164 166 168 169 172 175 178 180 183 187 191 196 200 203 205 207 207 208 209 211 211 209 204 198 194 192 192 194 195 194 195 195 193 189 187 185 183 180 179 182 190 201 205 198 194 205 225 231 233 237 241 242 242 242 245 248 251 252 253 251 251 248 246 242 240 240 240 240 239 239 239 240 239 237 237 238 239
172 172 172 171 168 164 163 164 168 172 174 174 175 176 178 179 181 183 186 188 191 194 196 197 198 199 201 202 202 202 201 197 194 192 189 189 192 196 198 197 196 195 195 194 191 187 185 188 192 194 196 194 196 210 227 231 226 223 230 241 247 247 246 247 250 253 257 257 255 252 250 247 243 240 238 237 236 235 236 237 238 240 240 241 243 244
176 176 176 176 175 172 169 173 178 180 179 180 180 182 182 182 183 183 185 186 187 187 187 188 188 190 191 192 193 194 194 194 192 190 187 187 190 194 198 198 198 197 197 196 195 192 188 193 199 200 197 192 189 197 218 232 231 226 224 230 241 252 257 256 256 258 260 259 255 251 249 247 244 240 238 236 235 234 233 234 236 238 240 242 244 247
180 179 179 183 184 185 185 186 186 185 185 185 186 186 186 185 183 182 183 183 183 182 182 181 181 181 182 184 185 187 188 189 189 187 186 186 189 193 197 198 198 197 196 196 197 196 192 193 198 201 204 205 207 208 215 228 234 234 229 226 228 243 257 263 265 266 264 262 257 251 248 246 245 244 241 240 238 237 235 235 236 238 240 241 243 245
181 180 182 188 190 191 191 190 189 189 190 191 191 190 190 188 186 184 183 182 182 182 180 178 174 171 171 173 177 180 182 183 184 185 185 186 189 193 196 198 199 198 198 197 199 200 200 200 201 202 208 212 219 227 232 232 238 239 236 232 237 252 264 266 268 269 266 264 259 253 248 246 246 246 244 243 243 243 241 240 239 240 241 242 243 242
184 185 189 192 192 191 190 190 191 193 195 196 195 195 195 192 191 190 189 189 187 186 183 179 173 166 162 165 170 176 178 180 182 184 185 188 190 193 196 198 201 202 202 200 201 205 211 213 213 212 216 220 220 226 236 234 235 239 241 238 238 240 247 247 259 266 267 266 261 256 251 247 245 244 245 246 248 248 247 244 243 242 242 244 245 244
187 192 195 194 192 191 191 193 194 196 197 197 198 198 198 196 195 194 195 194 193 191 187 181 174 167 163 162 168 174 176 179 181 184 186 189 192 196 198 201 204 207 208 205 203 208 218 223 224 225 227 227 227 228 232 234 234 234 236 240 237 232 228 233 247 259 268 269 266 260 254 249 246 246 248 250 251 253 252 250 247 245 245 245 246 247
194 197 197 194 192 192 193 195 197 198 199 200 200 201 200 198 197 197 197 197 195 194 190 184 177 170 169 165 165 171 176 179 182 185 188 191 195 199 202 204 208 211 213 212 211 211 212 216 221 229 237 238 237 234 232 233 234 234 235 239 242 241 237 239 245 253 261 265 265 261 256 252 248 247 248 251 254 256 256 256 254 251 250 249 249 250
198 196 194 193 193 194 196 199 199 199 200 201 202 202 202 200 199 199 198 197 196 195 192 186 181 177 176 172 168 167 170 177 184 188 190 192 196 200 204 207 210 214 217 219 220 220 217 214 215 222 233 241 243 242 238 234 233 234 233 236 240 244 247 247 249 250 251 252 252 253 254 254 252 248 248 251 254 257 258 258 258 257 256 254 254 254
197 194 193 192 193 194 198 200 200 199 199 200 202 203 202 201 199 199 199 198 197 195 191 188 186 187 185 178 173 170 170 174 182 190 193 195 198 201 205 209 213 217 221 225 228 230 230 227 225 224 225 228 234 239 239 236 233 231 230 231 234 238 243 246 249 250 249 244 238 240 249 253 251 248 247 251 253 255 257 260 261 262 261 260 260 260
197 195 194 193 193 195 198 200 199 197 196 199 202 203 202 201 199 199 199 198 197 194 190 187 189 193 191 183 179 177 175 173 175 184 195 199 202 205 208 212 216 220 225 230 234 237 239 240 239 236 232 228 229 234 236 232 229 227 228 228 231 236 240 243 247 250 249 243 239 239 245 247 245 243 245 249 252 255 256 259 263 266 266 265 264 264
198 196 196 196 195 196 198 199 198 195 194 197 200 202 201 199 199 198 198 197 195 192 188 188 190 193 191 187 186 184 181 176 175 181 192 201 206 209 211 214 218 223 229 236 242 248 251 252 251 248 243 238 234 233 236 234 230 229 230 231 233 236 240 242 244 246 247 248 247 247 247 246 243 241 241 244 249 253 255 256 260 265 268 269 268 267
197 198 198 197 196 197 198 198 197 194 193 195 197 198 198 198 198 198 197 195 193 191 190 191 192 193 192 190 190 189 187 182 179 183 192 203 207 208 209 212 214 218 224 236 248 254 259 266 265 262 257 250 241 235 233 233 234 233 234 233 235 236 237 239 239 240 242 248 252 253 251 247 244 242 241 242 247 254 257 258 259 261 265 269 270 270
197 198 198 198 197 198 198 198 196 194 193 194 195 195 196 196 197 198 197 195 193 192 194 195 195 195 195 192 193 194 194 191 188 187 191 204 206 204 201 201 198 195 195 205 212 215 224 254 270 270 264 259 251 240 233 228 228 231 232 232 234 235 235 234 235 234 235 239 247 253 255 250 246 242 240 240 245 252 258 259 258 258 259 264 269 271